| time (UTC) | temp F | wind direction | speed MPH | gust MPH | rain 1hr in | rain 24hr in | rain mn in | humidity % | barometer mb |
| 20260904062519 | 79 | 216 | 8.0 | 14.0 | 0.00 | 1.00 | 0.00 | 88 | 1011.7 |
| 20260904062019 | 79 | 224 | 6.0 | 12.0 | 0.00 | 1.00 | 0.00 | 91 | 1011.6 |
| 20260904061518 | 79 | 244 | 5.0 | 12.0 | 0.00 | 1.00 | 0.00 | 91 | 1011.5 |
| 20260904061020 | 79 | 232 | 4.0 | 7.0 | 0.00 | 1.00 | 0.00 | 91 | 1011.3 |
| 20260904060517 | 79 | 244 | 3.0 | 7.0 | 0.00 | 1.00 | 0.00 | 91 | 1011.2 |
| 20260904060017 | 79 | 215 | 2.0 | 7.0 | 0.00 | 1.00 | 0.00 | 91 | 1011.2 |
| 20260904055516 | 79 | 295 | 1.0 | 5.0 | 0.00 | 1.00 | 0.00 | 91 | 1011.2 |
| 20260904055014 | 79 | 232 | 2.0 | 5.0 | 0.00 | 1.00 | 0.00 | 92 | 1011.3 |
| 20260904054528 | 79 | 274 | 1.0 | 6.0 | 0.00 | 1.00 | 0.00 | 92 | 1011.4 |
| 20260904054014 | 79 | 292 | 1.0 | 6.0 | 0.00 | 1.00 | 0.00 | 91 | 1011.4 |
| 20260904053513 | 79 | 215 | 1.0 | 3.0 | 0.00 | 1.00 | 0.00 | 91 | 1011.3 |
| 20260904053018 | 78 | 209 | 1.0 | 3.0 | 0.00 | 1.00 | 0.00 | 91 | 1011.3 |
| 20260904052515 | 78 | 243 | 0.0 | 2.0 | 0.00 | 1.00 | 0.00 | 91 | 1011.5 |
| 20260904052015 | 78 | 243 | 0.0 | 2.0 | 0.00 | 1.00 | 0.00 | 90 | 1011.4 |
| 20260904051514 | 78 | 243 | 0.0 | 3.0 | 0.00 | 1.00 | 0.00 | 90 | 1011.4 |
| 20260904051015 | 78 | 223 | 1.0 | 3.0 | 0.00 | 1.00 | 0.00 | 90 | 1011.6 |
| 20260904050512 | 78 | 227 | 1.0 | 3.0 | 0.00 | 1.00 | 0.00 | 91 | 1011.5 |
| 20260904050012 | 78 | 223 | 2.0 | 3.0 | 0.00 | 1.00 | 0.00 | 91 | 1011.8 |
| 20260904045512 | 78 | 215 | 0.0 | 1.0 | 0.00 | 1.00 | 0.00 | 90 | 1012.1 |
| 20260904045012 | 78 | 215 | 0.0 | 1.0 | 0.00 | 1.00 | 0.00 | 90 | 1012.0 |
| 20260904044513 | 78 | 215 | 0.0 | 1.0 | 0.00 | 1.00 | 0.00 | 90 | 1011.8 |
| 20260904044011 | 78 | 163 | 0.0 | 2.0 | 0.00 | 1.00 | 0.00 | 90 | 1011.4 |
| 20260904043511 | 78 | 163 | 0.0 | 2.0 | 0.00 | 1.00 | 0.00 | 89 | 1011.2 |
| 20260904043010 | 78 | 163 | 1.0 | 3.0 | 0.00 | 1.00 | 0.00 | 90 | 1011.3 |
| 20260904042509 | 78 | 233 | 1.0 | 5.0 | 0.00 | 1.00 | 0.00 | 90 | 1011.8 |
| 20260904042008 | 78 | 252 | 2.0 | 5.0 | 0.00 | 1.00 | 0.00 | 90 | 1012.1 |
| 20260904041506 | 78 | 291 | 1.0 | 6.0 | 0.00 | 1.00 | 0.00 | 91 | 1012.1 |
| 20260904041004 | 78 | 259 | 1.0 | 4.0 | 0.00 | 1.00 | 0.00 | 91 | 1012.2 |
| 20260904040503 | 78 | 225 | 0.0 | 2.0 | 0.00 | 1.00 | 0.00 | 91 | 1012.2 |
| 20260904040005 | 78 | 215 | 0.0 | 3.0 | 0.00 | 1.00 | 0.00 | 91 | 1012.3 |
| 20260904035502 | 78 | 237 | 0.0 | 4.0 | 0.00 | 1.00 | 1.00 | 91 | 1012.5 |
| 20260904035004 | 78 | 218 | 1.0 | 4.0 | 0.00 | 1.00 | 1.00 | 91 | 1012.5 |
| 20260904034502 | 78 | 241 | 1.0 | 3.0 | 0.00 | 1.00 | 1.00 | 90 | 1012.7 |
| 20260904034001 | 78 | 240 | 1.0 | 3.0 | 0.00 | 1.00 | 1.00 | 90 | 1012.8 |
| 20260904033501 | 78 | 236 | 1.0 | 3.0 | 0.00 | 1.00 | 1.00 | 90 | 1012.7 |
| 20260904033101 | 78 | 259 | 0.0 | 3.0 | 0.00 | 1.00 | 1.00 | 90 | 1012.8 |
| 20260904032600 | 78 | 258 | 1.0 | 4.0 | 0.00 | 1.00 | 1.00 | 90 | 1012.8 |
| 20260904032103 | 78 | 224 | 1.0 | 4.0 | 0.00 | 1.00 | 1.00 | 90 | 1013.0 |
| 20260904031602 | 78 | 252 | 0.0 | 4.0 | 0.00 | 1.00 | 1.00 | 90 | 1013.0 |
| 20260904031100 | 78 | 231 | 1.0 | 3.0 | 0.00 | 1.00 | 1.00 | 90 | 1012.9 |
| 20260904030604 | 77 | 227 | 0.0 | 3.0 | 0.00 | 1.00 | 1.00 | 90 | 1012.9 |
| 20260904025600 | 77 | 223 | 1.0 | 3.0 | 0.00 | 1.00 | 1.00 | 90 | 1012.6 |
| 20260904025100 | 77 | 234 | 0.0 | 3.0 | 0.00 | 1.00 | 1.00 | 90 | 1012.6 |
| 20260904024600 | 77 | 268 | 0.0 | 1.0 | 0.00 | 1.00 | 1.00 | 89 | 1012.6 |
| 20260904024059 | 77 | 268 | 0.0 | 0.0 | 0.00 | 1.00 | 1.00 | 89 | 1012.5 |
| 20260904023600 | 77 | 268 | 0.0 | 0.0 | 0.00 | 1.00 | 1.00 | 89 | 1012.6 |
| 20260904023058 | 77 | 268 | 0.0 | 0.0 | 0.00 | 1.00 | 1.00 | 88 | 1012.5 |
| 20260904022557 | 77 | 268 | 0.0 | 0.0 | 0.00 | 1.00 | 1.00 | 88 | 1012.5 |
| 20260904022057 | 77 | 268 | 0.0 | 0.0 | 0.00 | 1.00 | 1.00 | 88 | 1012.7 |
| 20260904021601 | 77 | 268 | 0.0 | 1.0 | 0.00 | 1.00 | 1.00 | 87 | 1012.7 |
| 20260904021056 | 77 | 268 | 0.0 | 1.0 | 0.00 | 1.00 | 1.00 | 87 | 1012.8 |
| 20260904020554 | 77 | 268 | 0.0 | 1.0 | 0.00 | 1.00 | 1.00 | 87 | 1012.9 |
| 20260904020055 | 78 | 268 | 0.0 | 1.0 | 0.00 | 1.00 | 1.00 | 86 | 1013.0 |
| 20260904015551 | 78 | 268 | 0.0 | 1.0 | 0.00 | 1.00 | 1.00 | 86 | 1013.1 |
| 20260904015055 | 78 | 274 | 0.0 | 1.0 | 0.00 | 1.00 | 1.00 | 86 | 1013.2 |
| 20260904014602 | 78 | 215 | 0.0 | 1.0 | 0.00 | 1.00 | 1.00 | 86 | 1013.3 |
| 20260904014048 | 78 | 215 | 0.0 | 1.0 | 0.00 | 1.00 | 1.00 | 86 | 1013.3 |
| 20260904013550 | 78 | 215 | 0.0 | 0.0 | 0.00 | 1.00 | 1.00 | 85 | 1013.3 |
| 20260904013112 | 78 | 215 | 0.0 | 1.0 | 0.00 | 1.00 | 1.00 | 85 | 1013.3 |
| 20260904012551 | 78 | 215 | 0.0 | 2.0 | 0.00 | 1.00 | 1.00 | 84 | 1013.3 |
| 20260904012048 | 78 | 215 | 0.0 | 2.0 | 0.00 | 1.00 | 1.00 | 84 | 1013.4 |
| 20260904011609 | 79 | 254 | 0.0 | 2.0 | 0.00 | 1.00 | 1.00 | 83 | 1013.4 |
| 20260904011045 | 79 | 331 | 0.0 | 2.0 | 0.00 | 1.00 | 1.00 | 83 | 1013.4 |
| 20260904010545 | 79 | 300 | 0.0 | 1.0 | 0.00 | 1.00 | 1.00 | 83 | 1013.4 |
| 20260904010045 | 79 | 300 | 0.0 | 3.0 | 0.00 | 1.00 | 1.00 | 83 | 1013.4 |
| 20260904005548 | 79 | 355 | 0.0 | 3.0 | 0.00 | 1.00 | 1.00 | 82 | 1013.5 |
| 20260904005044 | 79 | 327 | 1.0 | 2.0 | 0.00 | 1.00 | 1.00 | 82 | 1013.6 |
| 20260904004544 | 79 | 318 | 0.0 | 1.0 | 0.00 | 1.00 | 1.00 | 82 | 1013.7 |
| 20260904004046 | 79 | 318 | 0.0 | 1.0 | 0.00 | 1.00 | 1.00 | 81 | 1013.5 |
| 20260904003544 | 79 | 318 | 0.0 | 2.0 | 0.00 | 1.00 | 1.00 | 81 | 1013.3 |
| 20260904003043 | 80 | 318 | 0.0 | 2.0 | 0.00 | 1.00 | 1.00 | 80 | 1013.2 |
| 20260904002543 | 80 | 265 | 0.0 | 2.0 | 0.00 | 1.00 | 1.00 | 80 | 1013.2 |
| 20260904002042 | 80 | 277 | 0.0 | 2.0 | 0.00 | 1.00 | 1.00 | 80 | 1013.1 |
| 20260904001544 | 80 | 15 | 0.0 | 2.0 | 0.00 | 1.00 | 1.00 | 80 | 1013.1 |
| 20260904001044 | 80 | 360 | 0.0 | 4.0 | 0.00 | 1.00 | 1.00 | 80 | 1013.0 |
| 20260904000544 | 80 | 276 | 1.0 | 4.0 | 0.00 | 1.00 | 1.00 | 80 | 1012.9 |
| 20260904000042 | 80 | 280 | 1.0 | 4.0 | 0.00 | 1.00 | 1.00 | 80 | 1012.8 |
| 20260903235545 | 80 | 294 | 0.0 | 4.0 | 0.00 | 1.00 | 1.00 | 80 | 1012.8 |
| 20260903235042 | 81 | 272 | 1.0 | 3.0 | 0.00 | 1.00 | 1.00 | 79 | 1012.7 |
| 20260903234541 | 81 | 297 | 0.0 | 3.0 | 0.00 | 1.00 | 1.00 | 79 | 1012.7 |
| 20260903234041 | 81 | 287 | 1.0 | 3.0 | 0.00 | 1.00 | 1.00 | 79 | 1012.7 |
| 20260903233541 | 81 | 228 | 0.0 | 1.0 | 0.00 | 1.00 | 1.00 | 78 | 1012.7 |
| 20260903233041 | 81 | 277 | 0.0 | 2.0 | 0.00 | 1.00 | 1.00 | 78 | 1012.6 |
| 20260903232540 | 81 | 292 | 0.0 | 4.0 | 0.00 | 1.00 | 1.00 | 77 | 1012.6 |
| 20260903232040 | 82 | 300 | 0.0 | 4.0 | 0.00 | 1.00 | 1.00 | 77 | 1012.4 |
| 20260903231545 | 82 | 284 | 0.0 | 3.0 | 0.00 | 1.00 | 1.00 | 77 | 1012.6 |
| 20260903231039 | 82 | 259 | 1.0 | 4.0 | 0.00 | 1.00 | 1.00 | 77 | 1012.6 |
| 20260903230539 | 82 | 263 | 1.0 | 4.0 | 0.00 | 1.00 | 1.00 | 77 | 1012.7 |
| 20260903230039 | 83 | 233 | 1.0 | 6.0 | 0.00 | 1.00 | 1.00 | 77 | 1012.5 |
| 20260903225539 | 83 | 227 | 2.0 | 6.0 | 0.00 | 1.00 | 1.00 | 76 | 1012.4 |
| 20260903225039 | 83 | 239 | 1.0 | 7.0 | 0.00 | 1.00 | 1.00 | 76 | 1012.3 |
| 20260903224540 | 83 | 217 | 2.0 | 7.0 | 0.00 | 1.00 | 1.00 | 75 | 1012.3 |
| 20260903224038 | 83 | 239 | 2.0 | 6.0 | 0.00 | 1.00 | 1.00 | 77 | 1012.3 |
| 20260903223538 | 84 | 239 | 2.0 | 7.0 | 0.00 | 1.00 | 1.00 | 77 | 1012.3 |
| 20260903223040 | 84 | 222 | 2.0 | 7.0 | 0.00 | 1.00 | 1.00 | 77 | 1012.3 |
| 20260903222537 | 84 | 254 | 3.0 | 7.0 | 0.00 | 1.00 | 1.00 | 77 | 1012.3 |
| 20260903222038 | 84 | 225 | 2.0 | 5.0 | 0.00 | 1.00 | 1.00 | 78 | 1012.3 |
| 20260903221537 | 84 | 251 | 3.0 | 8.0 | 0.00 | 1.00 | 1.00 | 78 | 1012.4 |
| 20260903221037 | 84 | 239 | 3.0 | 8.0 | 0.00 | 1.00 | 1.00 | 78 | 1012.3 |
| 20260903220537 | 84 | 237 | 2.0 | 8.0 | 0.00 | 1.00 | 1.00 | 78 | 1012.3 |
| 20260903220043 | 84 | 227 | 3.0 | 8.0 | 0.00 | 1.00 | 1.00 | 78 | 1012.3 |
| 20260903215536 | 84 | 248 | 3.0 | 9.0 | 0.00 | 1.00 | 1.00 | 77 | 1012.2 |
| 20260903215035 | 84 | 259 | 2.0 | 9.0 | 0.00 | 1.00 | 1.00 | 76 | 1012.3 |
| 20260903214535 | 85 | 255 | 3.0 | 8.0 | 0.00 | 1.00 | 1.00 | 75 | 1012.4 |
| 20260903214035 | 85 | 245 | 2.0 | 8.0 | 0.00 | 1.00 | 1.00 | 75 | 1012.3 |
| 20260903213534 | 85 | 248 | 4.0 | 8.0 | 0.00 | 1.00 | 1.00 | 76 | 1012.3 |
| 20260903213033 | 85 | 209 | 3.0 | 9.0 | 0.00 | 1.00 | 1.00 | 76 | 1012.4 |
| 20260903212532 | 84 | 257 | 5.0 | 8.0 | 0.00 | 1.00 | 1.00 | 76 | 1012.4 |
| 20260903212032 | 84 | 301 | 2.0 | 9.0 | 0.00 | 1.00 | 1.00 | 78 | 1012.4 |
| 20260903211543 | 84 | 256 | 3.0 | 9.0 | 0.00 | 1.00 | 1.00 | 77 | 1012.5 |
| 20260903211032 | 84 | 252 | 4.0 | 10.0 | 0.00 | 1.00 | 1.00 | 77 | 1012.6 |
| 20260903210531 | 84 | 242 | 4.0 | 10.0 | 0.00 | 1.00 | 1.00 | 77 | 1012.6 |
| 20260903210031 | 84 | 281 | 4.0 | 10.0 | 0.00 | 1.00 | 1.00 | 77 | 1012.6 |
| 20260903205531 | 84 | 208 | 4.0 | 9.0 | 0.00 | 1.00 | 1.00 | 77 | 1012.6 |
| 20260903205029 | 84 | 225 | 4.0 | 11.0 | 0.00 | 1.00 | 1.00 | 77 | 1012.6 |
| 20260903204528 | 84 | 213 | 5.0 | 12.0 | 0.00 | 1.00 | 1.00 | 76 | 1012.7 |
| 20260903204028 | 84 | 239 | 4.0 | 12.0 | 0.00 | 1.00 | 1.00 | 76 | 1012.7 |
| 20260903203532 | 84 | 208 | 3.0 | 7.0 | 0.00 | 1.00 | 1.00 | 77 | 1012.8 |
| 20260903203026 | 84 | 229 | 1.0 | 7.0 | 0.00 | 1.00 | 1.00 | 77 | 1012.8 |
| 20260903202529 | 83 | 182 | 2.0 | 8.0 | 0.00 | 1.00 | 1.00 | 77 | 1012.8 |
| 20260903202026 | 84 | 246 | 0.0 | 0.0 | 0.00 | 1.00 | 1.00 | 76 | 1012.8 |
| 20260903201526 | 84 | 182 | 0.0 | 0.0 | 0.00 | 1.00 | 1.00 | 76 | 1012.8 |
| 20260903201025 | 84 | 223 | 0.0 | 0.0 | 0.00 | 1.00 | 1.00 | 76 | 1012.9 |
| 20260903200526 | 84 | 237 | 0.0 | 0.0 | 0.00 | 1.00 | 1.00 | 76 | 1012.9 |
| 20260903200024 | 84 | 232 | 0.0 | 0.0 | 0.00 | 1.00 | 1.00 | 76 | 1013.0 |
| 20260903195522 | 84 | 307 | 0.0 | 0.0 | 0.00 | 1.02 | 1.00 | 76 | 1013.1 |
| 20260903195021 | 84 | 226 | 0.0 | 0.0 | 0.00 | 1.02 | 1.00 | 76 | 1013.3 |
| 20260903194527 | 84 | 253 | 0.0 | 0.0 | 0.00 | 1.02 | 1.00 | 76 | 1013.4 |
| 20260903194120 | 84 | 230 | 0.0 | 0.0 | 0.00 | 1.02 | 1.00 | 76 | 1013.6 |
| 20260903193519 | 84 | 236 | 0.0 | 0.0 | 0.00 | 1.02 | 1.00 | 76 | 1013.6 |
| 20260903193019 | 84 | 308 | 0.0 | 0.0 | 0.00 | 1.02 | 1.00 | 77 | 1013.5 |
| 20260903192518 | 84 | 225 | 0.0 | 0.0 | 0.00 | 1.02 | 1.00 | 76 | 1013.6 |
| 20260903192017 | 84 | 218 | 0.0 | 0.0 | 0.00 | 1.02 | 1.00 | 75 | 1013.7 |
| 20260903191528 | 84 | 247 | 0.0 | 0.0 | 0.00 | 1.02 | 1.00 | 76 | 1013.8 |
| 20260903191016 | 84 | 257 | 0.0 | 0.0 | 0.00 | 1.02 | 1.00 | 75 | 1013.8 |
| 20260903190515 | 84 | 207 | 0.0 | 0.0 | 0.00 | 1.02 | 1.00 | 75 | 1013.9 |
| 20260903190014 | 84 | 286 | 0.0 | 0.0 | 0.00 | 1.02 | 1.00 | 75 | 1013.9 |
| 20260903185513 | 84 | 221 | 0.0 | 0.0 | 0.00 | 1.02 | 1.00 | 74 | 1013.7 |
| 20260903185013 | 84 | 218 | 0.0 | 0.0 | 0.00 | 1.02 | 1.00 | 75 | 1013.8 |
| 20260903184513 | 84 | 303 | 0.0 | 0.0 | 0.00 | 1.02 | 1.00 | 75 | 1013.9 |
| 20260903184011 | 84 | 232 | 0.0 | 0.0 | 0.00 | 1.02 | 1.00 | 74 | 1013.9 |
| 20260903183516 | 85 | 250 | 0.0 | 0.0 | 0.00 | 1.02 | 1.00 | 74 | 1013.9 |
| 20260903183012 | 84 | 239 | 0.0 | 0.0 | 0.00 | 1.02 | 1.00 | 75 | 1014.0 |
| 20260903182511 | 84 | 246 | 0.0 | 0.0 | 0.00 | 1.02 | 1.00 | 74 | 1013.8 |
| 20260903182009 | 84 | 230 | 0.0 | 0.0 | 0.00 | 1.02 | 1.00 | 75 | 1013.9 |
| 20260903181511 | 84 | 355 | 0.0 | 0.0 | 0.00 | 1.02 | 1.00 | 75 | 1014.0 |
| 20260903181012 | 84 | 261 | 0.0 | 0.0 | 0.00 | 1.02 | 1.00 | 75 | 1014.1 |
| 20260903180509 | 84 | 180 | 0.0 | 0.0 | 0.00 | 1.02 | 1.00 | 77 | 1014.2 |
| 20260903180019 | 84 | 186 | 0.0 | 0.0 | 0.00 | 1.02 | 1.00 | 76 | 1014.3 |
| 20260903175507 | 84 | 287 | 0.0 | 0.0 | 0.00 | 1.02 | 1.00 | 76 | 1014.2 |
| 20260903175007 | 84 | 276 | 0.0 | 0.0 | 0.00 | 1.02 | 1.00 | 77 | 1014.0 |
| 20260903174514 | 83 | 221 | 0.0 | 0.0 | 0.00 | 1.02 | 1.00 | 77 | 1014.1 |
| 20260903174006 | 83 | 213 | 0.0 | 1.0 | 0.00 | 1.02 | 1.00 | 78 | 1014.2 |
| 20260903173530 | 83 | 232 | 0.0 | 1.0 | 0.00 | 1.02 | 1.00 | 78 | 1014.4 |
| 20260903173004 | 83 | 241 | 0.0 | 1.0 | 0.00 | 1.02 | 1.00 | 79 | 1014.7 |
| 20260903172503 | 83 | 245 | 0.0 | 1.0 | 0.00 | 1.02 | 1.00 | 78 | 1014.7 |
| 20260903172003 | 83 | 264 | 0.0 | 0.0 | 0.00 | 1.02 | 1.00 | 78 | 1014.9 |
| 20260903171500 | 82 | 227 | 0.0 | 0.0 | 0.00 | 1.02 | 1.00 | 81 | 1015.0 |
| 20260903171100 | 82 | 270 | 0.0 | 0.0 | 0.00 | 1.02 | 1.00 | 81 | 1015.1 |
| 20260903171002 | 82 | 232 | 0.0 | 0.0 | 0.00 | 1.02 | 1.00 | 81 | 1015.0 |
| 20260903170600 | 81 | 227 | 0.0 | 1.0 | 0.00 | 1.02 | 1.00 | 81 | 1015.2 |
| 20260903165600 | 81 | 238 | 0.0 | 0.0 | 0.00 | 1.02 | 1.00 | 81 | 1015.2 |
| 20260903165059 | 81 | 208 | 0.0 | 1.0 | 0.00 | 1.02 | 1.00 | 82 | 1015.4 |
| 20260903164558 | 82 | 280 | 0.0 | 1.0 | 0.00 | 1.02 | 1.00 | 81 | 1015.4 |
| 20260903164058 | 82 | 318 | 0.0 | 0.0 | 0.00 | 1.02 | 1.00 | 81 | 1015.6 |
| 20260903163600 | 81 | 227 | 0.0 | 0.0 | 0.00 | 1.02 | 1.00 | 83 | 1015.6 |
| 20260903163057 | 81 | 278 | 0.0 | 0.0 | 0.00 | 1.02 | 1.00 | 83 | 1015.7 |
| 20260903162556 | 81 | 244 | 0.0 | 1.0 | 0.00 | 1.02 | 1.00 | 83 | 1015.5 |
| 20260903162056 | 81 | 229 | 0.0 | 1.0 | 0.00 | 1.02 | 1.00 | 83 | 1015.5 |
| 20260903161556 | 81 | 269 | 0.0 | 1.0 | 0.00 | 1.02 | 1.00 | 82 | 1015.5 |
| 20260903161056 | 82 | 207 | 0.0 | 0.0 | 0.00 | 1.02 | 1.00 | 82 | 1015.3 |
| 20260903160554 | 81 | 267 | 0.0 | 0.0 | 0.00 | 1.02 | 1.00 | 82 | 1015.4 |
| 20260903160054 | 81 | 251 | 0.0 | 1.0 | 0.00 | 1.02 | 1.00 | 81 | 1015.6 |
| 20260903155553 | 81 | 249 | 0.0 | 1.0 | 0.00 | 1.02 | 1.00 | 81 | 1015.4 |
| 20260903155054 | 81 | 223 | 0.0 | 0.0 | 0.00 | 1.02 | 1.00 | 82 | 1015.3 |
| 20260903154554 | 81 | 221 | 0.0 | 0.0 | 0.00 | 1.02 | 1.00 | 81 | 1015.3 |
| 20260903154052 | 81 | 264 | 0.0 | 0.0 | 0.00 | 1.02 | 1.00 | 82 | 1015.2 |
| 20260903153552 | 81 | 237 | 0.0 | 0.0 | 0.00 | 1.02 | 1.00 | 81 | 1015.3 |
| 20260903153051 | 81 | 304 | 0.0 | 0.0 | 0.00 | 1.02 | 1.00 | 82 | 1015.2 |
| 20260903152550 | 80 | 206 | 0.0 | 0.0 | 0.00 | 1.02 | 1.00 | 82 | 1015.2 |
| 20260903152051 | 80 | 229 | 0.0 | 0.0 | 0.00 | 1.02 | 1.00 | 82 | 1015.0 |
| 20260903151604 | 80 | 261 | 0.0 | 0.0 | 0.00 | 1.02 | 1.00 | 82 | 1015.0 |
| 20260903151051 | 80 | 253 | 0.0 | 0.0 | 0.00 | 1.02 | 1.00 | 81 | 1014.9 |
| 20260903150548 | 80 | 255 | 0.0 | 0.0 | 0.00 | 1.02 | 1.00 | 82 | 1014.8 |
| 20260903150051 | 80 | 268 | 0.0 | 0.0 | 0.00 | 1.02 | 1.00 | 82 | 1014.8 |
| 20260903145548 | 80 | 232 | 0.0 | 0.0 | 0.00 | 1.02 | 1.00 | 82 | 1014.7 |
| 20260903145047 | 79 | 292 | 0.0 | 0.0 | 0.00 | 1.02 | 1.00 | 83 | 1014.5 |
| 20260903144545 | 79 | 211 | 0.0 | 0.0 | 0.00 | 1.02 | 1.00 | 83 | 1014.6 |
| 20260903144045 | 79 | 249 | 0.0 | 0.0 | 0.00 | 1.02 | 1.00 | 84 | 1014.7 |
| 20260903143543 | 79 | 220 | 0.0 | 0.0 | 0.00 | 1.02 | 1.00 | 85 | 1014.9 |
| 20260903143042 | 78 | 219 | 0.0 | 0.0 | 0.00 | 1.02 | 1.00 | 86 | 1014.8 |
| 20260903142541 | 77 | 260 | 0.0 | 0.0 | 0.00 | 1.02 | 1.00 | 88 | 1015.0 |
| 20260903142040 | 77 | 223 | 0.0 | 0.0 | 0.00 | 1.02 | 1.00 | 89 | 1015.0 |
| 20260903141541 | 76 | 227 | 0.0 | 9.0 | 0.00 | 1.02 | 1.00 | 90 | 1015.1 |
| 20260903141037 | 75 | 267 | 1.0 | 9.0 | 0.00 | 1.02 | 1.00 | 92 | 1015.0 |
| 20260903140535 | 75 | 210 | 2.0 | 9.0 | 0.00 | 1.02 | 1.00 | 92 | 1014.8 |
| 20260903140034 | 74 | 223 | 5.0 | 9.0 | 0.00 | 1.02 | 1.00 | 92 | 1014.5 |
| 20260903135533 | 74 | 203 | 0.0 | 10.0 | 0.00 | 1.02 | 1.00 | 93 | 1014.6 |
| 20260903135034 | 74 | 227 | 1.0 | 6.0 | 0.01 | 1.02 | 1.00 | 93 | 1014.5 |
| 20260903134531 | 74 | 223 | 0.0 | 5.0 | 0.01 | 1.02 | 1.00 | 93 | 1014.8 |
| 20260903134029 | 73 | 214 | 1.0 | 7.0 | 0.02 | 1.02 | 1.00 | 93 | 1014.5 |
| 20260903133532 | 73 | 248 | 4.0 | 7.0 | 0.02 | 1.02 | 1.00 | 93 | 1014.8 |
| 20260903133027 | 73 | 221 | 3.0 | 7.0 | 0.02 | 1.02 | 1.00 | 93 | 1015.0 |
| 20260903132525 | 73 | 222 | 3.0 | 7.0 | 0.02 | 1.02 | 1.00 | 94 | 1015.1 |
| 20260903132024 | 73 | 227 | 3.0 | 10.0 | 0.02 | 1.02 | 1.00 | 94 | 1015.0 |
| 20260903131525 | 73 | 217 | 5.0 | 10.0 | 0.02 | 1.02 | 1.00 | 94 | 1015.2 |
| 20260903131024 | 73 | 223 | 5.0 | 10.0 | 0.02 | 1.02 | 1.00 | 94 | 1015.4 |
| 20260903130525 | 72 | 220 | 2.0 | 7.0 | 0.02 | 1.02 | 1.00 | 94 | 1015.5 |
| 20260903130026 | 72 | 208 | 3.0 | 6.0 | 0.02 | 1.02 | 1.00 | 94 | 1015.0 |
| 20260903125523 | 72 | 202 | 2.0 | 7.0 | 0.04 | 1.02 | 1.00 | 94 | 1014.9 |
| 20260903125023 | 72 | 220 | 3.0 | 5.0 | 0.04 | 1.01 | 0.99 | 94 | 1015.3 |
| 20260903124521 | 73 | 223 | 2.0 | 5.0 | 0.04 | 1.01 | 0.99 | 94 | 1015.6 |
| 20260903124023 | 72 | 126 | 1.0 | 4.0 | 0.03 | 1.00 | 0.98 | 94 | 1016.1 |
| 20260903123520 | 73 | 91 | 2.0 | 3.0 | 0.03 | 1.00 | 0.98 | 94 | 1016.5 |
| 20260903123023 | 73 | 293 | 0.0 | 3.0 | 0.03 | 1.00 | 0.98 | 94 | 1017.4 |
| 20260903122522 | 73 | 285 | 1.0 | 4.0 | 0.03 | 1.00 | 0.98 | 95 | 1017.2 |
| 20260903122022 | 72 | 220 | 0.0 | 7.0 | 0.03 | 1.00 | 0.98 | 95 | 1017.2 |
| 20260903121521 | 72 | 242 | 3.0 | 7.0 | 0.03 | 1.00 | 0.98 | 94 | 1017.1 |
| 20260903121021 | 72 | 230 | 2.0 | 6.0 | 0.03 | 1.00 | 0.98 | 94 | 1016.9 |
| 20260903120520 | 72 | 232 | 3.0 | 6.0 | 0.03 | 1.00 | 0.98 | 95 | 1016.9 |
| 20260903120022 | 72 | 243 | 3.0 | 5.0 | 0.03 | 1.00 | 0.98 | 95 | 1017.1 |
| 20260903115520 | 72 | 234 | 2.0 | 5.0 | 0.01 | 0.98 | 0.96 | 95 | 1017.1 |
| 20260903115019 | 72 | 265 | 1.0 | 4.0 | 0.00 | 0.97 | 0.95 | 95 | 1017.2 |
| 20260903114518 | 72 | 219 | 2.0 | 4.0 | 0.00 | 0.97 | 0.95 | 95 | 1017.0 |
| 20260903114018 | 72 | 271 | 0.0 | 4.0 | 0.00 | 0.97 | 0.95 | 95 | 1017.1 |
| 20260903113519 | 72 | 223 | 0.0 | 4.0 | 0.00 | 0.97 | 0.95 | 95 | 1016.9 |
| 20260903113018 | 71 | 224 | 1.0 | 3.0 | 0.00 | 0.97 | 0.95 | 95 | 1016.8 |
| 20260903112518 | 71 | 223 | 0.0 | 3.0 | 0.00 | 0.97 | 0.95 | 95 | 1016.6 |
| 20260903112018 | 71 | 223 | 1.0 | 3.0 | 0.00 | 0.97 | 0.95 | 95 | 1016.6 |
| 20260903111518 | 71 | 192 | 1.0 | 2.0 | 0.00 | 0.97 | 0.95 | 95 | 1016.8 |
| 20260903111017 | 71 | 105 | 0.0 | 2.0 | 0.01 | 0.97 | 0.95 | 94 | 1017.0 |
| 20260903110517 | 71 | 105 | 0.0 | 2.0 | 0.03 | 0.97 | 0.95 | 94 | 1017.0 |
| 20260903110017 | 71 | 105 | 0.0 | 4.0 | 0.03 | 0.97 | 0.95 | 94 | 1017.1 |
| 20260903105517 | 72 | 190 | 0.0 | 4.0 | 0.07 | 0.97 | 0.95 | 95 | 1016.8 |
| 20260903105017 | 71 | 221 | 1.0 | 3.0 | 0.07 | 0.97 | 0.95 | 95 | 1016.9 |
| 20260903104516 | 71 | 215 | 0.0 | 1.0 | 0.11 | 0.97 | 0.95 | 95 | 1017.1 |
| 20260903104017 | 71 | 215 | 0.0 | 1.0 | 0.23 | 0.97 | 0.95 | 95 | 1017.2 |
| 20260903103516 | 71 | 215 | 0.0 | 2.0 | 0.27 | 0.97 | 0.95 | 95 | 1017.3 |
| 20260903103016 | 71 | 215 | 1.0 | 2.0 | 0.27 | 0.97 | 0.95 | 95 | 1017.3 |
| 20260903102516 | 71 | 134 | 0.0 | 2.0 | 0.27 | 0.97 | 0.95 | 94 | 1017.3 |
| 20260903102020 | 71 | 108 | 0.0 | 2.0 | 0.27 | 0.97 | 0.95 | 94 | 1017.2 |
| 20260903101536 | 71 | 82 | 0.0 | 3.0 | 0.30 | 0.97 | 0.95 | 94 | 1017.0 |
| 20260903101015 | 71 | 100 | 1.0 | 3.0 | 0.28 | 0.96 | 0.94 | 94 | 1017.0 |
| 20260903100514 | 72 | 59 | 0.0 | 3.0 | 0.27 | 0.94 | 0.92 | 94 | 1017.3 |
| 20260903100013 | 72 | 50 | 0.0 | 5.0 | 0.26 | 0.93 | 0.91 | 94 | 1017.3 |
| 20260903095517 | 72 | 111 | 1.0 | 5.0 | 0.23 | 0.90 | 0.88 | 95 | 1017.6 |
| 20260903095013 | 72 | 73 | 0.0 | 5.0 | 0.22 | 0.89 | 0.87 | 95 | 1017.5 |
| 20260903094513 | 72 | 49 | 0.0 | 2.0 | 0.18 | 0.85 | 0.83 | 95 | 1016.8 |
| 20260903094013 | 72 | 53 | 0.0 | 1.0 | 0.06 | 0.73 | 0.71 | 95 | 1016.7 |
| 20260903093513 | 72 | 215 | 0.0 | 2.0 | 0.03 | 0.70 | 0.68 | 95 | 1016.7 |
| 20260903093013 | 72 | 215 | 0.0 | 1.0 | 0.03 | 0.70 | 0.68 | 95 | 1016.7 |
| 20260903092512 | 72 | 215 | 0.0 | 2.0 | 0.03 | 0.70 | 0.68 | 95 | 1016.5 |
| 20260903092013 | 72 | 215 | 0.0 | 2.0 | 0.03 | 0.70 | 0.68 | 95 | 1016.5 |
| 20260903091513 | 72 | 118 | 0.0 | 2.0 | 0.00 | 0.67 | 0.65 | 95 | 1016.4 |
| 20260903091011 | 72 | 119 | 0.0 | 1.0 | 0.00 | 0.67 | 0.65 | 94 | 1016.5 |
| 20260903090512 | 72 | 118 | 0.0 | 1.0 | 0.00 | 0.67 | 0.65 | 94 | 1016.3 |
| 20260903090011 | 72 | 118 | 0.0 | 2.0 | 0.03 | 0.67 | 0.65 | 94 | 1016.4 |
| 20260903085511 | 72 | 118 | 1.0 | 2.0 | 0.04 | 0.67 | 0.65 | 94 | 1016.2 |
| 20260903085010 | 72 | 118 | 0.0 | 1.0 | 0.04 | 0.67 | 0.65 | 94 | 1016.1 |
| 20260903084524 | 72 | 118 | 0.0 | 1.0 | 0.04 | 0.67 | 0.65 | 94 | 1016.2 |
| 20260903084010 | 72 | 118 | 0.0 | 1.0 | 0.06 | 0.67 | 0.65 | 94 | 1016.3 |
| 20260903083512 | 72 | 118 | 0.0 | 1.0 | 0.10 | 0.67 | 0.65 | 94 | 1016.3 |
| 20260903083018 | 72 | 118 | 0.0 | 1.0 | 0.12 | 0.67 | 0.65 | 94 | 1016.4 |
| 20260903082511 | 72 | 119 | 0.0 | 2.0 | 0.14 | 0.67 | 0.65 | 94 | 1016.4 |
| 20260903082009 | 72 | 118 | 0.0 | 2.0 | 0.14 | 0.67 | 0.65 | 94 | 1016.4 |
| 20260903081509 | 72 | 196 | 0.0 | 2.0 | 0.14 | 0.67 | 0.65 | 94 | 1016.6 |
| 20260903081008 | 72 | 196 | 1.0 | 3.0 | 0.15 | 0.67 | 0.65 | 94 | 1016.3 |
| 20260903080509 | 72 | 128 | 1.0 | 3.0 | 0.16 | 0.67 | 0.65 | 94 | 1016.2 |
| 20260903080016 | 72 | 116 | 1.0 | 3.0 | 0.20 | 0.63 | 0.61 | 94 | 1016.1 |
| 20260903075508 | 72 | 85 | 1.0 | 3.0 | 0.52 | 0.63 | 0.61 | 94 | 1016.3 |
| 20260903075007 | 72 | 99 | 1.0 | 3.0 | 0.61 | 0.63 | 0.61 | 94 | 1016.5 |
| 20260903074507 | 72 | 231 | 2.0 | 6.0 | 0.60 | 0.62 | 0.60 | 94 | 1016.6 |
| 20260903074011 | 72 | 142 | 2.0 | 9.0 | 0.57 | 0.60 | 0.57 | 94 | 1016.6 |
| 20260903073507 | 72 | 113 | 3.0 | 9.0 | 0.55 | 0.56 | 0.55 | 94 | 1016.5 |
| 20260903073007 | 72 | 22 | 1.0 | 4.0 | 0.53 | 0.55 | 0.53 | 94 | 1017.1 |
| 20260903072506 | 72 | 316 | 0.0 | 8.0 | 0.51 | 0.53 | 0.51 | 94 | 1017.0 |
| 20260903072006 | 72 | 76 | 2.0 | 8.0 | 0.51 | 0.53 | 0.51 | 94 | 1017.0 |
| 20260903071506 | 72 | 31 | 0.0 | 4.0 | 0.51 | 0.53 | 0.51 | 94 | 1017.0 |
| 20260903071010 | 72 | 63 | 1.0 | 6.0 | 0.50 | 0.52 | 0.50 | 94 | 1016.7 |
| 20260903070505 | 72 | 51 | 1.0 | 10.0 | 0.48 | 0.50 | 0.48 | 94 | 1016.8 |
| 20260903070006 | 72 | 11 | 3.0 | 10.0 | 0.39 | 0.41 | 0.39 | 93 | 1017.0 |
| 20260903065505 | 72 | 334 | 3.0 | 10.0 | 0.06 | 0.08 | 0.06 | 94 | 1018.1 |
| 20260903065003 | 72 | 27 | 1.0 | 6.0 | 0.00 | 0.02 | 0.00 | 94 | 1017.8 |
| 20260903064502 | 72 | 348 | 0.0 | 1.0 | 0.00 | 0.02 | 0.00 | 94 | 1016.5 |
| 20260903064002 | 72 | 27 | 0.0 | 1.0 | 0.00 | 0.02 | 0.00 | 94 | 1016.0 |
| 20260903063502 | 72 | 27 | 0.0 | 2.0 | 0.00 | 0.02 | 0.00 | 94 | 1016.1 |
| 20260903063001 | 72 | 336 | 0.0 | 2.0 | 0.00 | 0.02 | 0.00 | 94 | 1016.2 |